Regional Weather Roundup
Issued by NWS

Home | Current Version | Previous Version | Graphics & Text | Print | Product List | Glossary On
Versions: 1 2 3 4 5 6 7 8 9 10 11 12 13 14 15 16 17 18 19 20 21 22 23 24 25 26 27
000
ASUS45 KBOU 232307
RWRCO

WEATHER ROUNDUP FOR COLORADO
NATIONAL WEATHER SERVICE DENVER/BOULDER CO
500 PM MDT THU OCT 23 2014

NOTE: "FAIR" INDICATES FEW OR NO CLOUDS BELOW 12000 FEET WITH NO
SIGNIFICANT WEATHER AND/OR OBSTRUCTIONS TO VISIBILITY.

COZ001>005-013-030-031-240000-
...NORTHWEST COLORADO...

CITY           SKY/WX    TMP DP  RH WIND       PRES   REMARKS
CRAIG          MOSUNNY   66  35  31 SW9       30.16F
HAYDEN         MOSUNNY   64  30  27 W13       30.18F
MEEKER         SUNNY     65  34  31 S12       30.20S
MOUNT WERNER   NOT AVBL
STEAMBOAT SPGS MOSUNNY   62  32  33 W7        30.20F
WALDEN         CLOUDY    54  27  35 SW12      30.25F
$$

COZ006>008-011-240000-
...WEST CENTRAL VALLEYS...

CITY           SKY/WX    TMP DP  RH WIND       PRES   REMARKS
GRAND JUNCTION SUNNY     67  37  33 W7        30.16F
MONTROSE       SUNNY     70  34  26 N3        30.22S
EAGLE          MOSUNNY   64  34  32 W8        30.24S
RIFLE          SUNNY     67  36  31 CALM      30.18F
DELTA          SUNNY     74  33  22 CALM      30.18S
NUCLA          NOT AVBL
$$

COZ017>023-064>068-240000-
...SOUTHWEST COLORADO...

CITY           SKY/WX    TMP DP  RH WIND       PRES   REMARKS
DURANGO        SUNNY     65  37  35 SW9       30.27S
CORTEZ         SUNNY     68  31  25 NW8       30.25S
PAGOSA SPRINGS SUNNY     64  31  29 SW5       30.33R
TELLURIDE      SUNNY     57  30  36 W12       30.41S
WOLF CREEK PAS SUNNY     41  30  65 SW13G20     N/A
$$

COZ009-010-012-014-032>034-037-058>063-240000-
...CENTRAL COLORADO...

CITY           SKY/WX    TMP DP  RH WIND       PRES   REMARKS
ASPEN          SUNNY     58  34  40 VRB3      30.29S
BUENA VISTA    SUNNY     62  27  26 W12G18    30.28S
COPPER MTN     SUNNY     45  25  45 W17       30.52S
BERTHOUD PASS  FAIR      34  32  93 MISG      30.52R
COTTONWOOD PAS SUNNY     55  25  30 NW3       30.41R
GUNNISON       SUNNY     63  27  25 SW13      30.32S
KREMMLING      MOSUNNY   61  27  27 SW8         N/A
LEADVILLE      SUNNY     51  21  30 NW8       30.40R
MONARCH PASS   SUNNY     41  28  60 SW24G30   30.63S
SALIDA         SUNNY     65  29  25 SW14      30.34S
SUNLIGHT       SUNNY     45  30  57 CALM      30.48R
WILKERSON PASS NOT AVBL
$$

COZ069>075-240000-
...SAN LUIS VALLEY/SANGRE DE CRISTO MOUNTAINS...

CITY           SKY/WX    TMP DP  RH WIND       PRES   REMARKS
ALAMOSA        SUNNY     64  26  23 E5        30.28S
LA VETA PASS   SUNNY     50  27  40 SW8       30.43R
SAGUACHE       SUNNY     63  32  31 CALM      30.31R
$$

COZ035-036-038>040-240000-
...NORTHERN COLORADO FRONT RANGE...

CITY           SKY/WX    TMP DP  RH WIND       PRES   REMARKS
DENVER INTL AP PTSUNNY   69  31  24 S7        30.10S
DMNS CITY PARK   N/A     71  31  22 E3        30.10S
AURORA         PTSUNNY   67  30  25 SE5       30.12F
FRONT RANGE AP NOT AVBL
ERIE MUNI ARPT MOSUNNY   68  32  26 SW6       30.08S
BOULDER MUN AP MOSUNNY   72  30  21 NW8G17    30.09R
CENTENNIAL     PTSUNNY   69  31  24 CALM      30.12F
BROOMFIELD     PTSUNNY   72  30  21 S5        30.12S
FORT COLLINS   PTSUNNY   68  34  28 S6        30.07S
LONGMONT       PTSUNNY   73  31  20 SW14      30.08S
$$

COZ041-046-047-076>085-087-088-240000-
...PIKES PEAK/PALMER DIVIDE AND SOUTHERN FOOTHILLS...

CITY           SKY/WX    TMP DP  RH WIND       PRES   REMARKS
COLO. SPRINGS  PTSUNNY   68  29  23 S8        30.18S
A. F. ACADEMY  MOSUNNY   65  31  27 S7        30.18S
ELLICOTT       NOT AVBL
FALCON         MOSUNNY   64  29  26 S6        30.22S
FORT CARSON    MOSUNNY   69  30  23 SE6       30.15S
LIMON          MOSUNNY   67  32  27 S8        30.13R
MONUMENT HILL  MOSUNNY   61  32  33 CALM      30.21R
TRINIDAD       SUNNY     71  30  21 E7        30.16R
$$

COZ042>045-048>051-090-091-240000-
...NORTHEAST COLORADO...

CITY           SKY/WX    TMP DP  RH WIND       PRES   REMARKS
GREELEY ARPT   PTSUNNY   73  34  23 S5        30.06F
AKRON          MOSUNNY   70  32  24 SW5       30.07S
BURLINGTON     PTCLDY    68  39  34 SW8       30.08F
WRAY           PTCLDY    71  33  24 SW5       30.03S
STERLING       MOSUNNY   73  41  31 SW5       30.02S
HOLYOKE        PTCLDY    73  32  21 W8        30.02S
FORT MORGAN    MOSUNNY   69  27  21 CALM      30.06S
$$

COZ086-089-092>099-240000-
...SOUTHEAST COLORADO...

CITY           SKY/WX    TMP DP  RH WIND       PRES   REMARKS
PUEBLO         SUNNY     74  28  18 E10       30.08F
LA JUNTA       SUNNY     75  33  21 NE5       30.09S
LAMAR          MOSUNNY   76  36  23 S5        30.05S
SPRINGFIELD      N/A     72  48  42 SE3       30.10R
$$



USA.gov is the U.S. government's official web portal to all federal, state and local government web resources and services.